This demonstration page uses our WeatherBlox Daily Observations layout. Learn more.

38.88101, -77.10428

Hourly Observations for November 19, 2016

Temp ( °F °C ) Dew Point ( °F °C ) Humidity (%) Winds ( mph kmh ) Pressure ( in mb ) Visibility ( mi km ) Precip ( " mm )
12:52 am 00:52 Clear 51 10.6 45 7.2 80 80 SW 5 7 30.03 1017 10 16.09344 0 0
1:52 am 01:52 Clear 48 8.9 45 7.2 89 89 SW 5 7 30.03 1017 10 16.09344 0 0
2:52 am 02:52 Clear 50 10 45 7.2 83 83 S 5 7 30.03 1017 10 16.09344 0 0
3:52 am 03:52 Clear 48 8.9 44 6.7 86 86 SSW 3 6 30.03 1017 10 16.09344 0 0
4:52 am 04:52 Clear 47 8.3 46 7.8 97 97 NNE 3 6 30 1016 10 16.09344 0 0
5:52 am 05:52 Clear 46 7.8 44 6.7 93 93 Calm 29.97 1015 10 16.09344 0 0
6:52 am 06:52 Clear 46 7.8 45 7.2 96 96 ENE 3 6 29.97 1015 8 12.874752 0 0
7:52 am 07:52 Sunny 49 9.4 46 7.8 90 90 Calm 29.94 1014 10 16.09344 0 0
8:52 am 08:52 Sunny 51 10.6 48 8.9 89 89 Calm 29.91 1013 9 14.484096 0 0
9:52 am 09:52 Sunny 56 13.3 50 10 81 81 S 8 13 29.88 1012 10 16.09344 0 0
10:52 am 10:52 Sunny 63 17.2 50 10 63 63 SSW 7 11 29.85 1011 9 14.484096 0 0
11:52 am 11:52 Mostly Sunny 65 18.3 50 10 59 59 S 7 11 29.8 1009 9 14.484096 0 0
12:52 pm 12:52 Mostly Sunny 70 21.1 49 9.4 47 47 SSW 10 17 29.74 1007 10 16.09344 0 0
1:52 pm 13:52 Partly Cloudy 72 22.2 47 8.3 41 41 SSW 13 20 29.68 1005 10 16.09344 0 0
2:52 pm 14:52 Cloudy 70 21.1 47 8.3 44 44 WSW 10 17 29.71 1006 10 16.09344 0 0
2:59 pm 14:59 Cloudy 69 20.6 46 7.8 44 44 WNW 26 43 29.74 1007 10 16.09344 0 0
3:09 pm 15:09 Mostly Cloudy 61 16.1 40 4.4 46 46 WNW 28 44 29.74 1007 10 16.09344 0 0
3:52 pm 15:52 Cloudy 52 11.1 33 0.6 49 49 NW 31 50 29.8 1009 10 16.09344 0 0
4:52 pm 16:52 Cloudy with Rain 46 7.8 37 2.8 71 71 NW 25 41 29.85 1011 9 14.484096 0.001 0.001
5:13 pm 17:13 Cloudy with Heavy Rain 44 6.7 38 3.3 79 79 NW 23 37 29.85 1011 5 8.04672 0.03 0.762
5:52 pm 17:52 Cloudy with Light Rain 44 6.7 38 3.3 79 79 NNW 14 22 29.88 1012 10 16.09344 0.05 1.27
6:52 pm 18:52 Cloudy with Light Rain 45 7.2 36 2.2 71 71 NW 20 31 29.88 1012 10 16.09344 0.001 0.001
7:52 pm 19:52 Mostly Cloudy 45 7.2 29 -1.7 54 54 NW 13 20 29.88 1012 10 16.09344 0.001 0.001
8:52 pm 20:52 Mostly Clear 45 7.2 28 -2.2 52 52 WNW 17 28 29.91 1013 10 16.09344 0 0
9:52 pm 21:52 Mostly Clear 43 6.1 24 -4.4 47 47 WNW 13 20 29.91 1013 10 16.09344 0 0
10:52 pm 22:52 Partly Cloudy 43 6.1 23 -5 45 45 WNW 16 26 29.91 1013 10 16.09344 0 0
11:52 pm 23:52 Partly Cloudy 42 5.6 24 -4.4 49 49 W 13 20 29.88 1012 10 16.09344 0 0

Powered by AerisWeather